GFSMA_250_rhum_060.txt.gz
RH
100 100 80 68 55 60 71 82 98 89 78 90 88 92 100 98 100 98 84 82 91 89 96 97 100 100 85 83 86 80 62 52 48 42 33 29 26 22 21 24 23 23 24
100 99 88 58 54 75 92 89 97 86 98 100 100 100 98 93 100 86 93 86 100 100 100 100 100 94 90 95 85 66 60 57 44 37 30 31 29 27 28 29 31 30 31
100 94 75 68 74 59 95 100 96 100 100 100 100 99 100 100 96 93 92 100 91 98 92 100 100 100 96 82 68 60 57 53 40 35 34 35 32 30 29 33 36 38 39
100 96 100 89 100 100 100 100 96 100 100 100 100 99 94 100 100 96 100 100 97 100 100 100 100 100 93 73 64 63 54 47 42 39 36 34 30 30 31 35 38 40 38
99 100 100 85 69 82 99 100 100 100 92 91 92 100 100 100 96 100 100 81 96 98 100 100 100 87 76 72 64 53 48 45 42 43 44 42 36 38 38 36 41 41 37
100 100 100 95 99 100 100 100 94 100 100 100 100 100 92 100 100 100 100 100 100 100 97 99 79 70 78 74 59 48 46 46 46 44 44 41 44 49 45 43 46 41 39
100 100 100 100 100 100 98 91 92 96 99 89 100 80 94 99 100 100 100 100 90 96 84 72 71 70 69 59 53 58 61 62 64 55 57 67 53 46 38 43 44 42 43
100 100 100 94 80 72 80 77 79 72 78 91 100 100 100 100 100 99 93 89 79 69 75 78 67 61 55 50 66 85 100 99 83 83 66 57 48 39 41 43 41 42 46
100 98 100 100 95 76 72 71 84 99 100 100 100 100 100 96 93 87 80 72 63 62 63 74 53 54 84 100 100 100 92 82 71 69 60 46 38 40 42 40 41 44 46
100 100 100 100 98 100 100 100 100 100 100 100 100 97 87 79 68 57 55 49 52 57 54 57 65 99 100 100 91 91 93 79 62 48 43 40 40 37 37 39 39 41 39
100 100 100 100 100 100 100 100 100 100 98 98 93 87 76 69 62 57 48 48 42 44 61 88 91 94 79 71 78 82 68 45 49 51 50 44 43 42 42 40 37 36 35
100 100 100 100 100 100 100 100 100 99 98 87 81 79 77 70 56 44 44 47 43 68 92 100 85 74 75 69 50 39 43 51 55 49 44 39 35 33 34 36 37 37 39
100 100 100 100 95 93 93 84 78 64 57 55 57 54 50 47 64 75 63 57 90 100 96 91 85 74 56 39 43 49 49 45 40 39 44 47 46 46 40 36 36 35 33
66 66 64 63 61 98 98 100 82 57 46 40 43 37 36 54 65 81 90 89 84 85 91 84 72 67 72 69 63 55 48 42 39 43 50 50 50 50 50 47 43 32 23
55 53 53 53 80 100 100 99 62 56 77 79 67 78 91 94 92 87 87 93 82 70 62 90 88 81 75 65 56 48 49 44 45 53 56 55 56 55 52 44 34 25 18
56 61 71 88 100 100 100 100 100 100 100 100 100 100 100 90 84 88 90 79 63 74 98 98 90 74 68 58 52 52 47 47 49 54 57 57 58 56 49 37 31 19 12
98 96 80 81 67 100 100 100 100 100 100 100 100 100 91 83 86 81 82 74 95 94 98 87 79 74 69 70 68 56 54 54 55 54 53 53 50 47 41 26 18 13 10
100 100 99 74 96 97 100 100 100 100 100 100 100 94 76 80 72 61 78 90 92 88 88 84 74 72 75 76 67 74 68 62 60 56 49 51 46 34 24 15 12 8 8
100 100 70 98 73 66 94 100 100 100 96 95 82 62 49 56 83 78 76 71 85 82 71 65 70 72 78 82 75 71 62 55 57 57 54 41 30 19 13 9 6 6 5
100 100 100 100 100 100 100 100 100 100 90 51 40 59 70 75 68 63 78 77 70 64 65 66 67 73 80 75 74 73 62 62 65 63 47 40 21 11 8 5 4 5 4
100 100 100 100 100 100 100 100 85 58 49 60 63 57 51 62 76 82 76 67 63 67 64 62 71 81 78 84 81 76 68 60 62 53 34 25 12 9 6 4 4 4 4
100 100 100 100 76 66 56 45 54 62 49 41 55 68 80 82 88 77 63 67 66 62 63 69 74 76 92 93 88 77 64 55 48 43 20 12 7 5 5 4 4 4 4
61 55 49 46 47 51 51 49 54 67 76 76 84 93 87 80 69 72 74 79 72 65 69 73 78 83 72 94 71 63 59 48 38 26 12 6 5 5 4 4 3 3 3
54 63 68 71 71 72 69 64 58 54 60 74 76 77 82 79 80 84 88 80 76 78 76 76 81 89 90 77 64 54 50 33 22 16 8 4 5 5 4 4 3 3 3
57 54 55 54 52 56 59 58 57 61 63 64 66 76 73 79 84 85 71 68 81 82 88 94 94 92 92 82 62 52 47 22 13 8 7 4 4 4 4 3 2 3 3
49 47 48 53 55 55 57 56 57 60 65 69 73 76 84 86 83 78 80 86 81 78 94 99 100 100 95 83 75 56 28 13 9 7 6 4 4 3 3 3 3 3 3

GFSMA_250_rhum_063.txt.gz
RH
100 100 100 98 76 81 64 48 44 60 65 57 60 84 93 64 47 48 62 84 72 100 97 96 83 82 64 69 87 100 87 83 65 83 80 65 55 56 49 43 39 34 31
88 100 100 100 97 100 74 59 57 62 68 63 60 72 69 69 74 64 73 74 100 100 91 84 85 73 70 100 95 82 88 84 88 78 67 63 55 50 46 42 38 35 32
99 100 100 100 96 88 69 68 68 84 78 84 96 99 81 56 95 99 100 100 100 100 99 91 91 100 100 100 100 98 93 92 73 64 64 58 53 47 44 37 36 36 37
99 96 95 82 89 100 90 84 84 79 98 92 89 66 63 83 100 100 97 98 100 77 76 94 100 100 100 100 93 93 82 77 72 69 64 52 46 41 45 51 52 46 46
100 100 87 93 100 100 100 100 95 93 99 80 94 85 85 86 92 99 99 82 83 98 100 100 100 100 98 87 78 76 74 67 67 60 51 45 57 68 71 75 70 58 54
100 100 100 100 100 100 100 96 97 100 100 100 100 100 100 100 100 100 78 96 98 100 100 100 98 89 73 76 66 62 61 68 54 53 60 71 81 78 76 69 71 60 46
100 100 100 100 100 100 100 100 100 94 100 100 92 77 83 85 72 95 100 100 100 100 100 91 81 65 57 52 43 46 52 50 60 78 91 96 90 64 58 51 43 46 44
98 97 100 100 100 100 100 100 100 100 94 75 62 58 80 88 98 99 100 100 100 100 94 84 67 55 48 51 56 43 58 81 100 94 90 83 62 50 39 46 42 38 35
100 100 100 100 100 100 100 100 96 83 76 77 86 80 97 100 100 100 100 100 93 91 77 63 56 58 65 54 68 87 100 100 94 95 76 55 41 48 47 42 35 36 34
100 100 100 100 100 92 95 99 95 98 94 99 100 100 100 100 100 100 99 95 81 65 54 48 56 73 68 97 100 100 100 99 85 67 50 60 57 52 44 38 40 39 38
100 99 100 100 100 100 100 100 100 100 100 100 100 100 100 100 100 100 95 66 47 40 46 56 74 99 100 100 100 100 79 64 56 65 70 68 59 51 44 40 39 40 44
100 92 100 100 100 100 100 100 100 100 97 92 92 98 95 74 48 40 36 38 39 43 57 84 100 94 76 86 84 70 60 64 75 82 80 72 64 55 49 48 46 49 49
96 100 100 100 100 99 100 98 89 91 78 68 56 49 40 36 37 42 42 40 76 96 100 100 95 85 73 75 68 65 78 80 83 80 72 62 55 56 57 57 58 59 59
100 88 82 79 80 86 86 89 75 83 99 97 50 68 50 39 49 51 70 88 98 100 100 100 84 75 71 78 84 82 91 90 76 69 68 62 59 60 60 63 64 55 47
77 70 67 68 73 79 85 93 90 97 83 99 99 83 64 77 100 100 100 100 100 98 80 81 80 74 71 92 97 90 87 73 70 66 68 67 66 59 58 55 52 46 37
77 56 48 54 72 67 73 57 100 100 79 72 93 96 100 100 100 100 100 100 95 81 60 74 92 99 100 94 90 74 72 70 70 66 67 67 59 55 55 54 50 39 26
77 91 62 73 78 59 99 73 70 48 69 76 92 100 100 100 100 100 100 99 72 62 76 85 74 87 98 89 81 75 68 68 70 69 70 72 66 55 63 56 42 26 19
63 100 100 100 100 96 90 92 76 70 65 100 100 100 100 100 100 100 96 77 83 72 67 70 100 100 92 84 79 77 73 71 85 85 80 68 65 60 65 45 30 18 9
97 79 100 100 100 100 100 100 96 84 94 100 100 100 100 100 100 83 68 54 60 78 93 94 92 90 87 82 84 90 85 91 85 78 70 60 74 66 56 38 23 13 8
87 54 50 86 100 100 91 85 100 100 100 100 100 100 95 74 68 60 62 72 84 90 87 81 85 85 85 83 77 78 85 90 87 79 67 72 64 64 49 32 18 11 7
100 100 100 96 94 96 97 100 100 100 100 100 96 86 65 61 69 64 59 62 70 71 73 76 86 84 79 83 79 79 77 83 83 84 75 87 68 50 32 18 11 7 6
100 100 100 100 100 100 100 100 100 100 100 73 65 63 62 53 58 64 66 72 73 75 74 77 96 93 95 90 82 78 83 77 73 100 74 63 54 38 21 10 7 6 4
100 100 100 100 100 98 79 70 63 57 52 50 50 52 56 64 62 66 76 69 71 76 80 90 98 99 94 91 76 82 73 64 70 73 46 38 35 21 13 8 5 4 4
88 85 68 57 56 60 54 49 52 54 53 58 62 69 71 68 77 76 83 86 78 83 90 96 92 94 91 86 79 70 66 55 54 58 49 27 25 14 8 6 4 3 3
36 41 44 46 46 47 48 50 51 56 59 60 72 75 80 84 84 87 88 97 93 89 98 100 94 97 94 87 68 63 55 48 46 67 60 28 21 8 6 5 3 3 3
41 37 37 38 39 43 44 41 40 45 49 57 66 70 77 82 87 92 97 84 80 92 90 94 99 99 94 75 68 59 55 44 47 46 44 20 13 6 5 4 3 2 3

GFSMA_250_rhum_069.txt.gz
RH
94 97 97 75 70 80 68 46 33 36 43 45 59 53 70 81 81 75 59 63 63 65 68 63 59 56 50 49 57 82 98 100 100 100 100 100 100 100 100 92 72 51 46
92 100 88 98 86 61 54 87 60 82 88 99 99 100 100 100 97 71 77 81 78 74 76 70 78 67 61 62 94 96 100 100 100 100 100 100 100 100 81 60 57 48 46
83 68 88 77 56 65 60 55 67 98 100 100 100 100 100 100 78 81 86 76 90 69 57 55 82 82 70 99 90 98 100 100 94 100 100 100 93 80 58 52 40 40 40
100 95 76 72 72 76 69 74 89 100 100 100 100 100 100 99 100 94 88 63 72 61 72 96 95 84 83 96 100 100 100 100 100 100 99 78 50 45 48 45 40 40 35
100 100 100 100 100 100 100 100 100 99 100 100 100 100 100 100 100 86 62 58 52 78 85 92 94 100 100 100 100 100 100 100 100 100 63 44 42 48 47 40 38 32 32
100 100 95 100 100 100 98 100 100 100 100 100 100 100 100 93 79 49 47 58 88 99 100 100 100 100 100 100 100 100 100 100 93 58 50 44 50 50 45 45 34 42 56
93 85 66 73 93 100 95 100 100 100 100 100 100 99 88 70 58 57 68 90 89 100 100 100 100 100 100 100 100 100 80 63 56 56 50 47 53 56 45 46 52 59 72
93 98 100 100 100 100 100 97 99 100 100 100 99 97 82 68 83 76 99 96 100 100 100 100 100 100 100 100 86 48 52 32 37 44 47 62 61 54 50 55 62 78 97
90 82 76 83 100 100 100 100 100 100 100 93 86 88 80 94 96 92 100 100 100 86 93 100 100 91 68 49 47 38 35 36 45 63 68 76 87 65 56 62 88 96 97
84 76 74 73 76 96 97 100 100 100 100 100 98 90 99 100 100 100 99 85 80 99 100 89 66 40 34 30 34 34 36 76 99 100 100 78 70 64 69 84 98 100 95
76 71 72 74 79 94 99 100 100 100 100 94 91 100 100 100 100 100 100 100 100 99 93 76 54 39 32 37 40 55 98 100 100 100 93 81 77 78 88 100 98 100 95
70 73 79 91 92 93 91 97 100 100 100 100 100 100 100 100 100 100 100 82 64 83 55 52 51 40 40 46 84 100 97 100 100 89 89 80 90 97 89 100 99 99 99
100 99 100 100 100 100 100 100 100 100 100 100 100 100 100 100 90 76 61 41 33 39 54 60 44 44 50 79 100 100 100 100 94 83 79 72 70 73 84 84 93 99 100
94 97 100 100 100 100 100 100 100 100 100 97 95 85 59 52 52 43 38 36 34 34 41 49 70 62 99 100 100 100 100 92 90 78 71 72 78 90 86 92 92 88 90
100 100 99 99 100 99 96 94 92 76 61 60 51 46 42 56 61 54 47 30 34 50 66 89 98 100 100 100 100 94 88 95 72 82 77 94 86 80 87 89 92 99 100
84 87 90 99 95 97 87 76 71 70 68 54 40 30 33 35 27 29 37 52 78 92 100 100 100 100 100 100 92 78 74 76 85 94 86 82 97 100 100 94 99 97 88
88 87 85 85 82 73 73 74 74 61 47 37 32 31 33 36 40 54 74 98 100 100 100 100 100 98 91 69 64 82 94 93 100 90 97 98 100 100 97 97 88 92 90
70 59 55 53 49 53 58 57 58 62 42 43 59 100 85 70 74 90 100 100 100 100 100 100 86 70 74 94 90 85 94 95 84 95 100 100 100 98 94 84 87 79 76
54 52 52 51 43 47 36 40 40 40 53 72 71 74 100 96 100 100 100 100 100 100 97 86 77 77 83 74 81 92 97 95 99 94 96 98 97 98 97 88 82 82 77
93 89 70 57 50 40 40 47 54 66 76 73 75 100 87 87 100 100 100 100 75 68 60 54 56 68 76 76 77 86 84 90 87 85 99 99 95 92 84 88 88 68 66
87 89 74 73 65 67 77 93 98 98 98 100 100 100 100 100 100 76 54 56 55 52 55 54 54 56 61 66 77 76 76 84 100 100 95 89 99 91 90 95 91 86 74
73 82 84 88 90 100 100 100 100 100 100 100 93 83 51 47 50 57 57 58 62 74 80 82 69 67 74 80 68 69 66 91 91 89 69 89 91 93 97 95 75 60 61
34 34 59 78 59 65 72 60 43 39 43 48 50 52 54 58 63 69 72 79 77 80 85 91 81 74 67 65 70 69 72 82 81 76 64 80 82 98 98 95 60 53 54
47 41 41 42 42 43 46 50 55 57 62 69 76 80 84 88 94 98 98 97 93 91 87 90 90 82 76 70 77 73 77 86 86 85 74 74 84 100 100 76 52 45 46
53 47 54 66 70 72 71 73 76 78 81 86 94 99 100 98 95 92 90 84 87 83 84 86 91 100 94 86 88 78 85 84 90 86 90 81 96 94 87 62 51 45 43
91 74 74 88 96 100 98 93 92 99 100 100 100 100 100 100 100 100 96 92 89 84 81 95 97 96 100 92 88 86 85 88 92 96 95 88 96 66 58 55 43 41 34

GFSMA_250_rhum_072.txt.gz
RH
100 100 100 98 90 100 97 100 82 62 37 29 30 28 30 41 56 57 66 98 80 66 64 59 49 57 61 55 58 65 82 71 82 85 92 84 96 100 100 100 99 88 79
94 66 95 95 71 83 78 99 78 44 36 33 29 33 42 61 100 100 99 100 89 68 84 57 58 53 55 56 69 95 82 77 80 95 93 100 100 100 100 98 95 78 66
100 96 100 96 82 83 77 64 44 46 40 43 42 69 96 99 100 100 100 100 89 90 75 42 47 53 65 100 100 88 99 100 100 100 100 100 100 100 100 95 81 63 46
94 100 91 95 100 100 93 59 50 47 54 54 79 95 100 100 100 100 100 100 100 62 60 43 44 64 91 79 91 100 100 100 100 100 100 100 100 94 76 60 50 38 43
100 100 100 100 97 84 68 66 64 67 83 99 100 99 100 98 100 99 94 94 86 81 66 57 59 91 89 100 100 100 100 100 100 100 100 85 66 54 31 33 42 53 54
100 100 78 88 79 83 63 83 93 100 96 100 100 100 100 100 100 100 100 100 96 76 77 53 72 81 100 100 100 100 100 100 100 96 80 63 54 34 27 39 49 74 60
100 84 74 76 90 100 100 100 100 100 78 92 100 100 100 100 100 100 85 100 89 82 63 67 100 100 100 100 70 74 96 100 44 31 31 32 28 30 51 60 70 68 56
100 100 100 100 100 100 100 100 96 100 100 100 100 100 100 100 100 86 99 97 100 87 85 100 100 100 97 90 100 100 91 68 31 26 30 38 60 82 80 72 81 64 57
100 100 96 100 100 100 100 100 100 99 100 100 100 100 100 98 100 100 100 89 99 100 100 96 100 100 100 100 100 98 91 52 31 29 32 65 100 100 99 90 59 53 50
92 76 92 85 89 98 94 99 81 96 100 100 100 99 99 100 100 95 88 94 96 99 100 100 100 100 100 100 100 76 34 28 31 37 72 97 94 98 100 76 60 59 67
98 97 100 99 92 80 87 99 91 84 95 100 100 99 92 98 87 90 93 100 100 100 100 100 100 84 74 32 28 29 27 32 53 100 100 100 100 99 85 64 61 75 84
100 95 99 100 100 100 100 98 99 100 100 100 100 99 91 90 100 100 100 100 100 100 84 88 82 49 30 23 27 28 40 65 100 100 100 100 84 51 58 73 91 78 88
100 100 100 100 100 100 100 100 100 100 92 89 96 100 100 100 100 100 91 78 56 48 47 57 49 41 32 40 51 66 90 100 100 100 100 79 50 78 87 86 83 89 85
100 100 100 100 100 100 100 100 100 100 100 100 100 100 100 100 90 55 42 42 48 48 34 37 38 40 48 50 78 100 100 100 100 76 52 73 89 90 88 74 92 82 96
100 100 100 100 100 100 100 100 100 100 100 100 100 98 77 58 48 43 39 42 36 48 44 39 42 70 93 100 100 100 100 100 53 68 87 85 89 80 74 86 91 98 100
100 100 100 100 100 100 100 100 100 100 93 72 59 54 50 53 52 41 38 32 43 43 42 57 66 85 99 100 100 100 80 52 59 86 84 93 99 92 88 87 99 100 99
90 83 82 89 86 69 68 62 65 56 60 61 47 52 50 42 40 54 50 48 61 54 75 85 74 100 100 100 85 53 55 60 61 70 86 75 72 71 74 81 84 93 86
100 100 99 84 69 73 69 71 68 64 58 65 53 43 52 73 62 79 68 81 93 59 67 70 100 100 100 97 54 59 80 85 84 81 78 67 79 82 93 85 72 84 90
98 100 100 100 96 62 61 58 66 66 63 53 52 62 80 92 98 100 90 97 70 92 100 100 100 95 60 63 76 89 94 92 87 81 83 91 81 74 81 80 75 89 78
56 69 74 79 76 77 87 96 98 96 76 75 70 60 60 81 94 100 94 99 92 100 100 97 55 66 76 80 99 100 100 100 87 90 92 76 91 84 78 78 87 84 80
41 50 65 78 86 99 100 100 92 78 71 57 61 85 99 100 100 100 100 100 100 82 59 70 80 95 100 100 100 99 92 76 83 79 76 90 94 90 94 91 90 87 81
35 37 42 57 83 89 89 89 83 78 94 100 100 100 100 99 85 78 60 58 65 82 90 92 99 100 100 98 93 90 76 86 85 72 84 98 89 100 100 95 96 88 93
56 44 39 44 39 33 31 33 37 39 40 42 48 52 56 60 65 72 76 80 86 88 100 100 97 90 93 98 83 86 97 100 99 89 91 84 100 100 100 100 92 89 83
72 69 69 60 51 54 52 53 50 57 66 70 72 74 76 76 74 76 80 89 97 100 100 100 100 100 93 94 94 96 92 88 91 92 98 100 100 100 100 91 88 81 74
83 83 82 82 69 71 87 78 79 74 79 76 82 86 84 82 95 100 100 100 100 100 100 94 94 95 99 100 100 98 91 99 94 100 98 96 98 100 95 91 84 68 64
82 86 92 96 75 70 78 87 85 84 81 86 88 99 100 100 100 100 100 100 100 99 95 98 95 100 94 100 97 95 93 100 100 96 96 100 99 90 79 84 74 72 66

GFSMA_250_rhum_075.txt.gz
RH
100 100 100 100 100 90 100 100 100 99 71 86 60 43 26 25 25 27 29 40 39 68 84 93 75 77 74 56 45 56 58 61 59 66 79 86 89 82 100 100 100 100 98
97 100 100 100 100 100 100 100 100 80 100 69 54 34 30 31 30 42 41 67 94 98 95 90 88 83 67 62 50 53 55 77 74 88 100 100 95 100 100 99 86 90 70
100 97 82 100 100 97 85 94 84 72 91 72 47 42 33 34 35 56 74 85 87 100 100 100 96 88 90 79 64 57 75 73 99 100 100 100 100 100 100 94 86 81 68
100 100 100 95 63 80 100 96 73 72 56 59 46 43 36 50 57 68 89 100 100 100 100 100 99 98 94 93 79 67 84 100 100 100 100 100 100 100 97 66 37 30 31
100 100 100 100 100 80 57 62 55 75 78 54 49 50 59 86 96 90 100 100 100 100 100 100 100 100 99 93 74 68 90 100 100 100 100 100 100 100 72 36 28 26 28
100 100 100 100 100 97 97 84 100 75 74 48 58 89 97 100 100 100 100 100 100 100 100 91 100 98 99 84 62 96 100 100 100 100 100 100 100 95 73 52 38 35 47
100 100 100 100 100 100 100 97 67 71 47 58 87 97 100 100 100 100 100 100 100 100 99 100 100 91 90 86 100 100 100 100 100 100 100 100 91 86 67 43 31 49 73
100 100 100 100 97 96 87 79 60 50 64 79 100 100 100 100 100 100 100 100 100 100 100 100 90 66 81 100 100 100 100 100 100 100 100 91 64 30 35 39 59 100 100
91 100 92 90 98 90 91 95 88 91 100 100 100 100 100 100 100 100 100 100 100 100 100 100 82 79 91 100 100 100 100 100 100 82 40 29 31 44 56 93 100 100 36
92 96 81 98 96 100 100 100 99 100 100 100 100 100 100 100 100 100 100 100 100 87 99 73 73 100 100 100 100 100 96 75 54 35 32 41 46 96 100 100 95 54 49
65 94 100 99 100 100 98 98 99 99 97 92 100 100 100 100 100 100 100 100 94 72 90 100 100 100 100 99 74 78 72 53 38 34 42 42 99 100 100 100 49 41 47
100 100 95 98 92 100 100 100 90 89 93 100 100 100 100 100 100 100 98 92 90 100 100 100 97 79 58 61 56 66 32 30 28 45 72 94 100 100 100 44 42 50 47
86 94 100 100 100 100 100 100 100 100 100 100 100 100 100 100 100 82 96 100 100 100 100 84 59 48 40 38 32 26 25 28 43 78 100 100 100 65 46 52 50 63 69
73 100 100 98 99 100 100 100 100 100 100 100 100 100 99 93 98 100 100 100 98 84 71 51 46 38 34 33 39 44 34 40 60 100 100 100 79 57 75 74 78 75 82
86 93 98 94 100 100 100 99 100 100 98 98 84 94 100 100 100 100 88 71 72 70 67 48 40 42 38 35 39 39 52 83 100 100 100 80 77 78 89 78 88 92 97
86 100 100 100 100 100 100 100 100 100 100 100 100 100 100 95 84 82 78 60 54 49 44 39 40 40 41 47 48 54 67 100 100 100 73 87 68 88 100 99 98 78 79
86 100 100 100 100 100 100 100 100 100 100 87 72 83 86 90 73 75 70 44 56 47 40 49 55 52 53 49 78 71 95 94 99 85 99 88 93 97 100 100 98 89 78
92 96 81 99 100 100 78 65 67 71 90 85 87 95 79 85 84 58 60 74 80 87 62 100 87 94 67 69 63 86 100 91 92 94 100 100 99 100 98 96 93 86 90
32 63 92 96 97 98 90 81 88 96 100 70 99 93 99 100 83 82 97 83 70 72 64 78 100 100 100 84 100 94 100 100 100 100 91 84 99 100 100 95 85 85 86
32 30 42 62 74 88 98 100 100 91 90 96 100 100 100 100 100 96 75 71 72 98 98 96 100 94 93 81 78 99 100 100 100 93 88 98 99 99 87 89 94 85 87
53 40 40 35 42 48 68 89 94 97 96 100 100 100 100 100 96 64 69 95 100 100 100 64 66 74 77 86 100 100 100 95 88 99 100 100 89 91 99 93 93 91 93
83 73 81 63 50 39 43 44 47 60 79 95 81 66 70 38 37 47 100 100 99 62 70 72 78 87 100 100 95 89 84 96 100 100 100 97 90 92 100 90 89 99 94
76 80 75 76 79 79 77 65 57 59 56 44 43 45 49 58 66 70 73 80 85 86 89 87 91 95 94 73 80 89 100 96 81 74 82 100 100 100 96 92 100 98 93
70 100 96 91 61 64 71 76 73 72 82 69 60 68 79 68 65 81 80 73 86 90 83 75 78 92 89 89 90 88 90 95 100 100 100 100 91 93 84 88 100 100 100
45 86 100 100 100 97 82 62 44 58 62 54 74 80 67 70 77 75 79 93 85 90 100 100 89 99 98 100 100 100 95 89 99 100 100 86 82 95 100 100 100 89 92
59 54 70 100 100 100 98 99 100 99 60 61 76 74 84 100 100 100 100 100 100 100 100 100 100 100 100 100 98 90 100 100 100 100 98 88 94 99 90 89 95 94 89